Location: Unspecified
(0.0000°N, 0.0000°E)
Time: 22:27:50

PCSat - Pass Details

Date: 10 December 2017
Orbit: 785 x 795 km, 67.0° (Epoch: 19 March)

Event Time Altitude Azimuth Distance (km) Brightness Sun altitude
Rises 18:50:50 0° 216° (SW) 3,272 13.9 -13.3°
Reaches altitude 10° 18:53:25 10° 224° (SW) 2,341 13.2 -13.9°
Maximum altitude 18:58:16 35° 289° (WNW) 1,241 11.0 -15.0°
Drops below altitude 10° 19:03:07 10° 355° (N) 2,332 11.8 -16.1°
Enters shadow 19:05:39 - 3° (N) 3,236 12.5 -16.7°
